Seldovia, AK

3:54 AM AKDT on May 24, 2017 (GMT -0800)
Seldovia

Weather History for PASO - January, 2013

Change the Weather History Date:

Friday, January 4, 2013

  Actual Average (PAHO) Record (PAHO)
Temperature  
Mean Temperature 32 °F -  
Max Temperature 33 °F 28 °F 50 °F (1953)
Min Temperature 30 °F 14 °F -14 °F (1975)
Degree Days  
Heating Degree Days 34    
Moisture  
Dew Point 31 °F    
Average Humidity 94    
Maximum Humidity 96    
Minimum Humidity 92    
Precipitation  
Precipitation 0.15 in - - ()
Sea Level Pressure  
Sea Level Pressure 29.71 in    
Wind  
Wind Speed 0 mph (North)    
Max Wind Speed 0 mph    
Max Gust Speed -    
Visibility 5 miles    
Events Fog , Rain , Snow    
Averages and records for this station are not official NWS values.
T = Trace of Precipitation, MM = Missing Value Source: NWS Daily Summary

Daily Weather History Graph

Daily Weather History Graph

Search for Another Location

Airport or City:

Trip Planner

Search our weather history database for the weather conditions in past years. The results will help you decide how hot, cold, wet, or windy it might be!

Date:

Astronomy

Jan. 04, 2013 Rise Set
Actual Time 10:01 AM AKST 4:22 PM AKST
Civil Twilight 9:07 AM AKST 5:16 PM AKST
Nautical Twilight 8:13 AM AKST 6:11 PM AKST
Astronomical Twilight 7:22 AM AKST 7:01 PM AKST
Moon 1:01 AM AKST (1/4) 11:49 AM AKST (1/4)
Length of Visible Light 8h 09m
Length of Day
6h 20m
Waning Gibbous, 53% of the Moon is Illuminated
Jan 4
Waning Gibbous
Jan 4
Last Quarter
Jan 11
New
Jan 18
First Quarter
Jan 26
Full

Hourly Weather History & Observations

Time (AKST) Temp. Dew Point Humidity Pressure Visibility Wind Dir Wind Speed Gust Speed Precip Events Conditions
12:39 AM 33.8 °F 32.0 °F 93% 29.58 in 1.8 mi Calm Calm - 0.02 in Snow Light Snow
12:46 AM 33.8 °F 32.0 °F 93% 29.58 in 2.5 mi Calm Calm - 0.03 in Snow Light Snow
12:53 AM 33.1 °F 32.0 °F 96% 29.58 in 6.0 mi Calm Calm - 0.03 in Snow Light Snow
1:53 AM 33.1 °F 32.0 °F 96% 29.59 in 10.0 mi Calm Calm - 0.05 in Rain Light Rain
3:53 AM 33.1 °F 32.0 °F 96% 29.64 in 10.0 mi Calm Calm - 0.01 in   Mostly Cloudy
4:03 AM 33.8 °F 32.0 °F 93% 29.64 in 10.0 mi Calm Calm - N/A   Mostly Cloudy
4:38 AM 32.0 °F 30.2 °F 93% 29.64 in 10.0 mi Calm Calm - N/A   Partly Cloudy
4:48 AM 32.0 °F 30.2 °F 93% 29.64 in 2.5 mi Calm Calm - N/A   Mostly Cloudy
4:53 AM 32.0 °F 30.9 °F 96% 29.65 in 1.5 mi Calm Calm - N/A   Mostly Cloudy
4:59 AM 32.0 °F 30.2 °F 93% 29.65 in 0.8 mi Calm Calm - N/A   Mist
5:13 AM 32.0 °F 30.2 °F 93% 29.65 in 0.2 mi Calm Calm - N/A Fog Fog
5:24 AM 32.0 °F 30.2 °F 93% 29.66 in 0.8 mi Calm Calm - N/A   Mist
5:28 AM 32.0 °F 30.2 °F 93% 29.66 in 2.5 mi Calm Calm - N/A   Mostly Cloudy
5:35 AM 32.0 °F 30.2 °F 93% 29.66 in 10.0 mi Calm Calm - N/A   Mostly Cloudy
5:49 AM 32.0 °F 30.2 °F 93% 29.66 in 9.0 mi Calm Calm - N/A   Partly Cloudy
5:53 AM 32.0 °F 30.0 °F 92% 29.66 in 9.0 mi Calm Calm - N/A   Scattered Clouds
6:53 AM 32.0 °F 30.9 °F 96% 29.68 in 10.0 mi Calm Calm - N/A   Mostly Cloudy
7:53 AM 32.0 °F 30.0 °F 92% 29.70 in 7.0 mi Calm Calm - 0.00 in   Overcast
8:53 AM 32.0 °F 30.9 °F 96% 29.72 in 7.0 mi Calm Calm - 0.00 in   Mostly Cloudy
9:15 AM 32.0 °F 30.2 °F 93% 29.72 in 8.0 mi Calm Calm - 0.00 in   Overcast
9:28 AM 32.0 °F 30.2 °F 93% 29.73 in 9.0 mi Calm Calm - 0.00 in   Overcast
9:53 AM 32.0 °F 30.9 °F 96% 29.74 in 9.0 mi Calm Calm - 0.00 in   Mostly Cloudy
10:53 AM 32.0 °F 30.0 °F 92% 29.76 in 7.0 mi Calm Calm - N/A   Mostly Cloudy
11:01 AM 32.0 °F 30.2 °F 93% 29.76 in 7.0 mi Calm Calm - N/A   Mostly Cloudy
11:53 AM 32.0 °F 30.9 °F 96% 29.77 in 7.0 mi Calm Calm - N/A   Scattered Clouds
12:10 PM 32.0 °F 30.2 °F 93% 29.76 in 6.0 mi Calm Calm - N/A   Mostly Cloudy
12:53 PM 32.0 °F 30.9 °F 96% 29.77 in 6.0 mi Calm Calm - 0.00 in   Mostly Cloudy
1:38 PM 33.8 °F 32.0 °F 93% 29.78 in 2.5 mi Calm Calm - 0.01 in Snow Light Snow
1:53 PM 33.1 °F 32.0 °F 96% 29.78 in 5.0 mi Calm Calm - 0.02 in Snow Light Snow
2:28 PM 33.8 °F 32.0 °F 93% 29.77 in 6.0 mi Calm Calm - 0.00 in   Overcast
2:53 PM 33.1 °F 32.0 °F 96% 29.78 in 8.0 mi Calm Calm - 0.00 in   Overcast
3:00 PM 33.8 °F 32.0 °F 93% 29.77 in 2.5 mi Calm Calm - 0.01 in Snow Light Snow
3:08 PM 33.8 °F 32.0 °F 93% 29.77 in 1.2 mi Calm Calm - 0.02 in Snow Light Snow
3:16 PM 33.8 °F 32.0 °F 93% 29.77 in 2.0 mi Calm Calm - 0.02 in Snow Light Snow
3:26 PM 33.8 °F 32.0 °F 93% 29.77 in 5.0 mi Calm Calm - 0.02 in Snow Light Snow
3:39 PM 33.8 °F 32.0 °F 93% 29.77 in 7.0 mi Calm Calm - 0.02 in Snow Light Snow
3:53 PM 33.1 °F 32.0 °F 96% 29.77 in 2.5 mi Calm Calm - 0.02 in   Overcast
4:00 PM 33.8 °F 32.0 °F 93% 29.77 in 4.0 mi Calm Calm - 0.00 in   Overcast
4:41 PM 33.8 °F 32.0 °F 93% 29.76 in 6.0 mi Calm Calm - 0.01 in   Overcast
4:53 PM 33.1 °F 32.0 °F 96% 29.77 in 6.0 mi Calm Calm - 0.01 in   Overcast
5:00 PM 33.8 °F 32.0 °F 93% 29.76 in 4.0 mi Calm Calm - 0.00 in Snow Light Snow
5:53 PM 33.1 °F 30.9 °F 92% 29.75 in 7.0 mi Calm Calm - 0.01 in   Mostly Cloudy
6:53 PM 32.0 °F 30.9 °F 96% 29.74 in 10.0 mi Calm Calm - N/A   Partly Cloudy
7:53 PM 30.0 °F 28.9 °F 96% 29.73 in 9.0 mi Calm Calm - N/A   Partly Cloudy
8:16 PM 30.2 °F 28.4 °F 93% 29.72 in 0.8 mi Calm Calm - N/A   Mostly Cloudy
8:24 PM 30.2 °F 28.4 °F 93% 29.72 in 0.2 mi Calm Calm - N/A Fog Light Freezing Fog
8:34 PM 30.2 °F 28.4 °F 93% 29.72 in 0.2 mi Calm Calm - N/A Fog Light Freezing Fog
8:51 PM 30.2 °F 28.4 °F 93% 29.72 in 0.5 mi Calm Calm - N/A Fog Light Freezing Fog
8:53 PM 30.9 °F 28.9 °F 92% 29.72 in 0.5 mi Calm Calm - N/A Fog Light Freezing Fog
9:12 PM 30.2 °F 28.4 °F 93% 29.71 in 0.2 mi Calm Calm - N/A Fog Light Freezing Fog
9:39 PM 30.2 °F 28.4 °F 93% 29.71 in 1.2 mi Calm Calm - N/A   Mostly Cloudy
9:43 PM 30.2 °F 28.4 °F 93% 29.71 in 2.0 mi Calm Calm - N/A   Mostly Cloudy
9:53 PM 30.9 °F 28.9 °F 92% 29.71 in 4.0 mi Calm Calm - N/A   Mostly Cloudy
10:53 PM 30.9 °F 30.0 °F 96% 29.67 in 10.0 mi Calm Calm - N/A   Overcast
11:53 PM 30.9 °F 30.0 °F 96% 29.67 in 10.0 mi Calm Calm - N/A   Mostly Cloudy